Regional Weather Roundup
Issued by NWS

Home | Current Version | Previous Version | Graphics & Text | Print | Product List | Glossary Off
Versions: 1 2 3 4 5 6 7 8 9 10 11 12 13 14 15 16 17 18 19 20 21 22 23 24 25 26 27 28 29 30 31 32 33 34 35 36 37 38 39 40 41 42 43 44 45 46 47 48 49 50

000
ASUS43 KLSX 250010
RWRMO

WEATHER SUMMARY FOR MISSOURI
NATIONAL WEATHER SERVICE SPRINGFIELD MO
600 PM CST FRI FEB 24 2017

NOTE: "FAIR" INDICATES FEW OR NO CLOUDS BELOW 12,000 FEET WITH NO
       SIGNIFICANT WEATHER AND/OR OBSTRUCTIONS TO VISIBILITY.
       CURRENT SKY AND/OR WEATHER CONDITIONS ARE NOT AVAILABLE FOR
       CHILLICOTHE AND FARMINGTON.

MOZ001>031-035>038-043-044-053-054-250100-
...NORTHERN AND WESTERN MISSOURI...

CITY           SKY/WX    TMP DP  RH WIND       PRES   REMARKS
KANSAS CTY INT FLURRIES  28  22  78 NW17G26   29.90R WCI  16
6HR MIN TEMP:  28; 6HR MAX TEMP:  37; 6HR PCP: TRACE;

KANSAS C DTWN  CLOUDY    31  22  69 NW17G24   29.91R WCI  19
6HR MIN TEMP:  31; 6HR MAX TEMP:  42; 6HR PCP: TRACE;

LEE`S SUMMIT   CLOUDY    31  22  69 NW21G26   29.89R WCI  18
6HR MIN TEMP:  31; 6HR MAX TEMP:  42; 6HR PCP: TRACE;

ST JOSEPH      CLOUDY    27  23  85 NW21      29.93R WCI  13
6HR MIN TEMP:  27; 6HR MAX TEMP:  33; 6HR PCP: TRACE;

CHILLICOTHE      N/A     30  24  78 NW16G29   29.84R WCI  19
6HR MIN TEMP:  30; 6HR MAX TEMP:  42;

KIRKSVILLE     LGT SNOW  31  28  89 NW21G31   29.74R FOG     WCI  18
6HR MIN TEMP:  32; 6HR MAX TEMP:  41; 6HR PCP:  0.02;


$$
MOZ066>068-077>081-088>096-101>105-250100-
...SOUTHWEST MISSOURI...

CITY           SKY/WX    TMP DP  RH WIND       PRES   REMARKS
SPRINGFIELD    CLOUDY    42  25  50 NW15G24   29.83R
6HR MIN TEMP:  42; 6HR MAX TEMP:  50;

JOPLIN         CLOUDY    38  23  55 NW21G28   29.93R WCI  28
6HR MIN TEMP:  38; 6HR MAX TEMP:  50;

BRANSON        PTCLDY    46  27  46 NW15G25   29.82R

$$
MOZ032>034-039>042-045>050-055>058-069>072-250100-
...CENTRAL MISSOURI...

CITY           SKY/WX    TMP DP  RH WIND       PRES   REMARKS
COLUMBIA       CLOUDY    40  30  67 W24G31    29.76R WCI  29
6HR MIN TEMP:  40; 6HR MAX TEMP:  49;

JEFFERSON CITY CLOUDY    43  30  60 W20G30    29.76R
6HR MIN TEMP:  43; 6HR MAX TEMP:  48;

ROLLA          MOCLDY    44  28  53 W15       29.73R
6HR MIN TEMP:  44; 6HR MAX TEMP:  51; 6HR PCP: TRACE;

SEDALIA        CLOUDY    35  26  69 NW22G32   29.84R WCI  23
6HR MIN TEMP:  35; 6HR MAX TEMP:  47;

WHITEMAN AFB   DRIZZLE   34  26  72 W17G26    29.84R WCI  24
WARRENSBURG    CLOUDY    32  21  64 W16G22    29.88R WCI  21
OSAGE BEACH    CLOUDY    42  29  59 W15G23    29.81R

$$
MOZ051-052-059>065-250100-
...EAST CENTRAL MISSOURI...

CITY           SKY/WX    TMP DP  RH WIND       PRES   REMARKS
ST LOUIS INTL  PTCLDY    48  29  47 W17G30    29.70R
6HR MIN TEMP:  48; 6HR MAX TEMP:  59;

SPIRIT OF STL  PTCLDY    46  31  55 W16G23    29.70R
6HR MIN TEMP:  46; 6HR MAX TEMP:  58;

ST CHARLES     PTCLDY    47  31  53 W16       29.69R
6HR MIN TEMP:  47; 6HR MAX TEMP:  55;


$$
MOZ072>076-082>087-097>100-106>115-250100-
...SOUTH CENTRAL AND SOUTHEAST MISSOURI...

CITY           SKY/WX    TMP DP  RH WIND       PRES   REMARKS
CAPE GIRARDEAU CLOUDY    60  45  57 W13       29.66R
6HR MIN TEMP:  60; 6HR MAX TEMP:  69;

FARMINGTON     CLEAR     52  31  44 W12G18    29.70R
6HR MIN TEMP:  52; 6HR MAX TEMP:  63;

POPLAR BLUFF   CLEAR     60  35  39 W15G22    29.70R
6HR MIN TEMP:  60; 6HR MAX TEMP:  69;

WEST PLAINS    CLEAR     49  30  48 W9        29.76R
6HR MIN TEMP:  49; 6HR MAX TEMP:  57;


$$



USA.gov is the U.S. government's official web portal to all federal, state and local government web resources and services.